Location: Asarope
(8.2500°N, 4.4833°E)
Time: 00:47:26
(UTC+00:00)

Meteor 1-27 Rocket - Pass Details

Date: 07 June 2020
Orbit: 829 x 911 km, 81.3° (Epoch: 13 July)

Event Time Altitude Azimuth Distance (km) Brightness Sun altitude
Rises 04:51:21 0° 1° (N) 3,359 7.2 -8.1°
Reaches altitude 10° 04:53:46 10° 5° (N) 2,425 6.5 -7.5°
Maximum altitude 04:59:10 60° 85° (E) 944 4.4 -6.3°
Drops below altitude 10° 05:04:36 10° 164° (SSE) 2,447 6.0 -5.1°
Sets 05:07:04 0° 168° (SSE) 3,391 6.7 -4.5°
